Starlink 4116

operational
NORAD ID: 53164 Int'l Des: 2022-083 Owner: SPXS Country: US Constellation: starlink
LEOCIRCULAR

关于 Starlink 4116

正在加载描述...

实时位置

正在加载3D地球...

即将过境

高度历史

Altitude vs Time

uPlot chart will show altitude changes over time

两行轨道根数

1 53164U 22083AJ 25353.21968011 .00001194 00000-0 93086-4 0 9995
2 53164 53.2166 165.3629 0001365 91.9240 268.1908 15.08838928189213
Epoch: Dec 19, 2025 • Age: 33 hours

当前状态

高度 544.8 km
速度 7.59 km/s
星下点 -17.73°S, 54.2°E
发射日期 Jul 17, 2022
运行时间 3.4 years
类型 internet

技术详情

分类 Payload
质量 297.00 kg
干质量 275.00 kg
总质量 297.00 kg
长度 0.20 m
直径 2.80 m
跨度 9.00 m
形状 Box + pan
制造商 SPXS
平台类型 Starlink
阶段状态 In Orbit
所有者/国家 SPXS/US

大型星座

Loading constellations...